Location: Bieujac
(44.5398°N, 0.1549°W)
Time: 11:11:15
(UTC+00:00)

Cosmos 1447 Rocket - Pass Details

Date: 17 November 2019
Orbit: 955 x 995 km, 82.9° (Epoch: 16 December)

Event Time Altitude Azimuth Distance (km) Brightness Sun altitude
Rises 04:41:40 0° 349° (N) 3,724 7.4 -24.4°
Reaches altitude 10° 04:44:13 10° 347° (NNW) 2,771 6.7 -23.9°
Maximum altitude 04:50:31 67° 267° (W) 1,077 4.4 -22.8°
Drops below altitude 10° 04:56:45 10° 186° (S) 2,744 6.8 -21.7°
Sets 04:59:16 0° 183° (S) 3,685 7.6 -21.2°
